Flight Track Log - Related Links

Times and Time Zones

All times are in EDT time to prevent confusion due to time zone crossing. See the DAL1562 flight status page for this flight to view local times or setup timezone preferences in your user account.

Time Position Orientation Groundspeed Altitude Reporting Facility
EDT Latitude Longitude Course Direction KTS MPH feet Rate Location/Type
Sun 02:17:20 PM 42.1994 -83.3575 95° East 165 190 1,600  Level FAA TRACON SMA TRACON (SMA)
Sun 02:17:40 PM 42.1839 -83.3617 191° South 185 213 2,100 1,500 Climbing FAA TRACON SMA TRACON (SMA)
Sun 02:18:00 PM 42.1661 -83.3622 181° South 220 253 2,600 1,950 Climbing FAA TRACON SMA TRACON (SMA)
Sun 02:18:20 PM 42.1422 -83.3625 180° South 243 280 3,400 2,488 Climbing FAA TRACON SMA TRACON (SMA)
Sun 02:18:41 PM 42.1222 -83.3631 181° South 255 293 4,300 3,366 Climbing FAA TRACON SMA TRACON (SMA)
Sun 02:19:01 PM 42.0958 -83.3619 178° South 256 295 5,700 3,600 Climbing FAA TRACON SMA TRACON (SMA)
Sun 02:19:21 PM 42.0781 -83.3481 150° Southeast 262 302 6,700 3,300 Climbing FAA TRACON SMA TRACON (SMA)
Sun 02:19:41 PM 42.0678 -83.3139 112° Southeast 259 298 7,900 3,150 Climbing FAA TRACON SMA TRACON (SMA)
Sun 02:20:00 PM 42.2167 -82.6154 90° East  Level FlightAware Approximate
Sun 02:20:01 PM 42.0714 -83.2822 81° East 279 321 8,800  Level FAA TRACON SMA TRACON (SMA)
Sun 02:20:41 PM 42.0869 -83.2117 73° East 290 334 9,900 1,400 Climbing FAA TRACON SMA TRACON (SMA)
Sun 02:21:00 PM 42.2165 -82.4310 95° East  Level FlightAware Approximate
Sun 02:21:01 PM 42.0936 -83.1800 74° East 287 330 10,200  Level FAA TRACON SMA TRACON (SMA)
Sun 02:21:21 PM 42.1025 -83.1397 73° East 294 338 10,500 1,077 Climbing FAA TRACON SMA TRACON (SMA)
Sun 02:21:40 PM 42.1103 -83.1028 74° East 334 384 10,900 1,538 Climbing FAA TRACON SMA TRACON (SMA)
Sun 02:22:00 PM 42.2051 -82.2473 95° East  Level FlightAware Approximate
Sun 02:22:00 PM 42.1175 -83.0644 76° East 348 400 11,500  Level FAA TRACON SMA TRACON (SMA)
Sun 02:22:20 PM 42.1250 -83.0244 76° East 365 420 12,000 2,100 Climbing FAA TRACON SMA TRACON (SMA)
Sun 02:22:40 PM 42.1339 -82.9722 77° East 372 428 12,900 2,341 Climbing FAA TRACON SMA TRACON (SMA)
Sun 02:23:01 PM 42.1422 -82.9297 75° East 383 441 13,600 2,341 Climbing FAA TRACON SMA TRACON (SMA)
Sun 02:23:21 PM 42.1519 -82.8756 76° East 385 443 14,500 2,154 Climbing FAA TRACON SMA TRACON (SMA)
Sun 02:23:40 PM 42.1544 -82.8464 83° East 360 414 15,000 2,051 Climbing Cleveland Center
Sun 02:24:40 PM 42.1822 -82.7017 75° East 385 443 17,200 1,800 Climbing Cleveland Center
Sun 02:25:40 PM 42.2078 -82.5483 77° East 406 467 18,600 1,600 Climbing Cleveland Center
Sun 02:26:40 PM 42.2189 -82.3858 85° East 420 483 20,400 1,750 Climbing Cleveland Center
Sun 02:27:40 PM 42.2089 -82.2175 95° East 433 498 22,100 1,600 Climbing Cleveland Center
Sun 02:28:40 PM 42.1967 -82.0294 95° East 449 517 23,600 1,250 Climbing Cleveland Center
Sun 02:29:40 PM 42.1403 -81.8797 117° Southeast 449 517 24,600 1,100 Climbing Cleveland Center
Sun 02:30:40 PM 42.0539 -81.7800 139° Southeast 440 506 25,800 1,400 Climbing Cleveland Center
Sun 02:31:40 PM 41.9569 -81.6664 139° Southeast 461 531 27,400 1,650 Climbing Cleveland Center
Sun 02:32:40 PM 41.8578 -81.5533 140° Southeast 466 536 29,100 1,650 Climbing Cleveland Center
Sun 02:33:40 PM 41.7608 -81.4433 140° Southeast 466 536 30,700 950 Climbing Cleveland Center
Sun 02:34:40 PM 41.6678 -81.3364 139° Southeast 461 531 31,000 150 Climbing Cleveland Center
Sun 02:35:40 PM 41.5642 -81.2214 140° Southeast 456 525 31,000  Level Cleveland Center
Sun 02:36:40 PM 41.4753 -81.1069 136° Southeast 447 514 31,000  Level Cleveland Center
Sun 02:37:40 PM 41.3903 -80.9900 134° Southeast 447 514 31,000  Level Cleveland Center
Sun 02:38:40 PM 41.3050 -80.8706 134° Southeast 442 509 31,000  Level Cleveland Center
Sun 02:39:40 PM 41.2178 -80.7486 134° Southeast 442 509 31,000  Level Cleveland Center
Sun 02:40:40 PM 41.1325 -80.6300 134° Southeast 442 509 31,000  Level Cleveland Center
Sun 02:41:40 PM 41.0594 -80.5253 133° Southeast 442 509 31,000  Level Cleveland Center
Sun 02:42:40 PM 40.9717 -80.4097 135° Southeast 442 509 31,000  Level Cleveland Center
Sun 02:43:40 PM 40.8861 -80.2919 134° Southeast 442 509 31,000  Level Cleveland Center
Sun 02:44:40 PM 40.7897 -80.1664 135° Southeast 442 509 31,000  Level Cleveland Center
Sun 02:45:40 PM 40.7122 -80.0544 132° Southeast 447 514 31,000  Level Cleveland Center
Sun 02:46:40 PM 40.6406 -79.9208 125° Southeast 447 514 31,000  Level Cleveland Center
Sun 02:47:40 PM 40.5917 -79.7600 112° Southeast 452 520 31,000  Level Cleveland Center
Sun 02:48:40 PM 40.5467 -79.6022 111° Southeast 459 528 31,000  Level Cleveland Center
Sun 02:49:40 PM 40.4992 -79.4417 111° Southeast 464 534 31,000  Level Cleveland Center
Sun 02:50:40 PM 40.4494 -79.2817 112° Southeast 469 540 31,000  Level Cleveland Center
Sun 02:51:40 PM 40.4019 -79.1244 112° Southeast 469 540 31,000  Level Cleveland Center
Sun 02:52:40 PM 40.3558 -78.9647 111° Southeast 469 540 31,000  Level Cleveland Center
Sun 02:53:40 PM 40.3158 -78.8022 108° East 469 540 31,000  Level Cleveland Center
Sun 02:54:40 PM 40.3150 -78.6253 90° East 469 540 31,000 -150 Level Cleveland Center
Sun 02:55:40 PM 40.3161 -78.4483 89° East 469 540 30,700 -1,834 Descending Cleveland Center
Sun 02:57:53 PM 40.3133 -78.0639 90° East 481 554 25,100 -1,772 Descending New York Center
Sun 02:58:53 PM 40.3114 -77.8922 91° East 481 554 25,000 -555 Descending New York Center
Sun 02:59:52 PM 40.3122 -77.7044 90° East 476 548 24,000 -958 Descending New York Center
Sun 03:00:52 PM 40.3094 -77.5381 91° East 476 548 23,100 -958 Descending New York Center
Sun 03:01:51 PM 40.3078 -77.3800 91° East 456 525 22,100 -1,150 Descending New York Center
Sun 03:02:52 PM 40.3019 -77.2214 93° East 443 510 20,800 -1,180 Descending New York Center
Sun 03:03:53 PM 40.2978 -77.0686 92° East 436 502 19,700 -1,210 Descending New York Center
Sun 03:04:51 PM 40.2786 -76.9172 99° East 411 473 18,400 -756 Descending New York Center
Sun 03:05:52 PM 40.2561 -76.7872 103° East 411 473 18,200 -793 Descending New York Center
Sun 03:06:52 PM 40.2308 -76.6272 102° East 411 473 16,800 -1,388 Descending New York Center
Sun 03:07:53 PM 40.2083 -76.4894 102° East 401 461 15,400 -1,431 Descending New York Center
Sun 03:09:02 PM 40.1825 -76.3358 102° East 382 440 13,700 -1,551 Descending FAA TRACON SMA TRACON (SMA)
Sun 03:09:22 PM 40.1744 -76.2844 102° East 378 435 13,100 -1,950 Descending FAA TRACON SMA TRACON (SMA)
Sun 03:09:42 PM 40.1678 -76.2442 102° East 373 429 12,400 -2,000 Descending FAA TRACON SMA TRACON (SMA)
Sun 03:10:01 PM 40.1606 -76.2053 104° East 369 425 11,800 -2,462 Descending FAA TRACON SMA TRACON (SMA)
Sun 03:10:21 PM 40.1536 -76.1558 100° East 363 418 10,800 -2,250 Descending FAA TRACON SMA TRACON (SMA)
Sun 03:10:41 PM 40.1467 -76.1167 103° East 358 412 10,300 -900 Descending FAA TRACON SMA TRACON (SMA)
Sun 03:11:01 PM 40.1397 -76.0797 104° East 343 395 10,200 -150 Descending FAA TRACON SMA TRACON (SMA)
Sun 03:11:21 PM 40.1322 -76.0375 103° East 310 357 10,200 -450 Level FAA TRACON SMA TRACON (SMA)
Sun 03:11:41 PM 40.1275 -76.0067 101° East 301 346 9,900 -1,200 Descending FAA TRACON SMA TRACON (SMA)
Sun 03:12:01 PM 40.1208 -75.9739 105° East 295 339 9,400 -1,463 Descending FAA TRACON SMA TRACON (SMA)
Sun 03:12:22 PM 40.1144 -75.9342 102° East 291 335 8,900 -1,200 Descending FAA TRACON SMA TRACON (SMA)
Sun 03:12:41 PM 40.1092 -75.9028 102° East 289 333 8,600 -1,077 Descending FAA TRACON SMA TRACON (SMA)
Sun 03:13:01 PM 40.0944 -75.8761 126° Southeast 293 337 8,200 -1,500 Descending FAA TRACON SMA TRACON (SMA)
Sun 03:13:21 PM 40.0769 -75.8461 127° Southeast 282 325 7,600 -1,610 Descending FAA TRACON SMA TRACON (SMA)
Sun 03:13:42 PM 40.0614 -75.8219 130° Southeast 280 322 7,100 -1,463 Descending FAA TRACON SMA TRACON (SMA)
Sun 03:14:02 PM 40.0453 -75.7972 130° Southeast 281 323 6,600 -1,579 Descending FAA TRACON SMA TRACON (SMA)
Sun 03:14:20 PM 40.0264 -75.7683 130° Southeast 275 316 6,100 -923 Descending FAA TRACON SMA TRACON (SMA)
Sun 03:14:41 PM 40.0117 -75.7458 131° Southeast 270 311 6,000 -146 Descending FAA TRACON SMA TRACON (SMA)
Sun 03:15:01 PM 39.9972 -75.7236 130° Southeast 265 305 6,000  Level FAA TRACON SMA TRACON (SMA)
Sun 03:15:21 PM 39.9792 -75.6956 130° Southeast 264 304 6,000 -450 Level FAA TRACON SMA TRACON (SMA)
Sun 03:15:41 PM 39.9647 -75.6733 130° Southeast 264 304 5,700 -1,050 Descending FAA TRACON SMA TRACON (SMA)
Sun 03:16:01 PM 39.9508 -75.6472 125° Southeast 242 278 5,300 -1,050 Descending FAA TRACON SMA TRACON (SMA)
Sun 03:16:21 PM 39.9400 -75.6219 119° Southeast 231 266 5,000 -750 Descending FAA TRACON SMA TRACON (SMA)
Sun 03:16:41 PM 39.9300 -75.6006 121° Southeast 226 260 4,800 -750 Descending FAA TRACON SMA TRACON (SMA)
Sun 03:17:01 PM 39.9178 -75.5769 124° Southeast 215 247 4,500 -750 Descending FAA TRACON SMA TRACON (SMA)
Sun 03:17:21 PM 39.9067 -75.5572 126° Southeast 207 238 4,300 -750 Descending FAA TRACON SMA TRACON (SMA)
Sun 03:17:41 PM 39.8969 -75.5417 129° Southeast 191 220 4,000 -1,050 Descending FAA TRACON SMA TRACON (SMA)
Sun 03:18:01 PM 39.8875 -75.5253 127° Southeast 184 212 3,600 -1,200 Descending FAA TRACON SMA TRACON (SMA)
Sun 03:18:21 PM 39.8758 -75.5053 127° Southeast 183 211 3,200 -1,200 Descending FAA TRACON SMA TRACON (SMA)
Sun 03:18:41 PM 39.8681 -75.4892 122° Southeast 177 204 2,800 -1,200 Descending FAA TRACON SMA TRACON (SMA)

Login

Don't have an account? Register now (free) for customized features, flight alerts, and more!